| time (UTC) | temp F | wind direction | speed MPH | gust MPH | rain 1hr in | rain 24hr in | rain mn in | humidity % | barometer mb |
| 20260906194521 | 54 | 96 | 0.0 | 0.0 | 0.02 | 0.13 | 0.13 | 90 | 1016.2 |
| 20260906193020 | 54 | 96 | 0.0 | 0.0 | 0.03 | 0.13 | 0.13 | 91 | 1016.3 |
| 20260906191618 | 53 | 109 | 0.0 | 3.0 | 0.04 | 0.13 | 0.13 | 91 | 1016.2 |
| 20260906190017 | 53 | 117 | 1.0 | 3.0 | 0.06 | 0.12 | 0.12 | 90 | 1016.3 |
| 20260906184516 | 53 | 111 | 0.0 | 2.0 | 0.09 | 0.16 | 0.11 | 89 | 1016.5 |
| 20260906183038 | 53 | 72 | 0.0 | 2.0 | 0.10 | 0.15 | 0.10 | 89 | 1016.7 |
| 20260906181518 | 53 | 57 | 0.0 | 2.0 | 0.09 | 0.14 | 0.09 | 89 | 1016.8 |
| 20260906180019 | 53 | 104 | 0.0 | 1.0 | 0.06 | 0.11 | 0.06 | 88 | 1016.7 |
| 20260906174513 | 53 | 100 | 0.0 | 2.0 | 0.02 | 0.11 | 0.02 | 86 | 1016.6 |
| 20260906173113 | 53 | 89 | 0.0 | 1.0 | 0.00 | 0.09 | 0.00 | 83 | 1016.7 |
| 20260906171519 | 53 | 77 | 0.0 | 1.0 | 0.00 | 0.09 | 0.00 | 84 | 1016.8 |
| 20260906170013 | 53 | 84 | 0.0 | 1.0 | 0.00 | 0.09 | 0.00 | 82 | 1016.7 |
| 20260906164513 | 53 | 79 | 0.0 | 3.0 | 0.00 | 0.09 | 0.00 | 80 | 1016.8 |
| 20260906163012 | 53 | 115 | 0.0 | 2.0 | 0.00 | 0.09 | 0.00 | 78 | 1016.7 |
| 20260906161508 | 53 | 104 | 0.0 | 1.0 | 0.00 | 0.09 | 0.00 | 77 | 1016.8 |
| 20260906160006 | 53 | 60 | 0.0 | 0.0 | 0.00 | 0.09 | 0.00 | 79 | 1016.9 |
| 20260906154606 | 53 | 79 | 0.0 | 2.0 | 0.00 | 0.09 | 0.00 | 75 | 1016.9 |
| 20260906153005 | 52 | 175 | 0.0 | 1.0 | 0.00 | 0.09 | 0.00 | 78 | 1016.7 |
| 20260906151514 | 52 | 169 | 0.0 | 0.0 | 0.00 | 0.09 | 0.00 | 78 | 1016.5 |
| 20260906150006 | 52 | 169 | 0.0 | 0.0 | 0.00 | 0.09 | 0.00 | 77 | 1016.5 |
| 20260906144505 | 51 | 169 | 0.0 | 1.0 | 0.00 | 0.16 | 0.00 | 77 | 1016.2 |
| 20260906143003 | 51 | 148 | 0.0 | 1.0 | 0.00 | 0.16 | 0.00 | 77 | 1016.0 |
| 20260906141502 | 51 | 104 | 0.0 | 0.0 | 0.00 | 0.16 | 0.00 | 77 | 1016.1 |
| 20260906134605 | 52 | 102 | 0.0 | 3.0 | 0.00 | 0.19 | 0.00 | 76 | 1015.8 |
| 20260906133107 | 51 | 112 | 1.0 | 4.0 | 0.00 | 0.19 | 0.00 | 77 | 1015.7 |
| 20260906131600 | 51 | 146 | 0.0 | 3.0 | 0.00 | 0.19 | 0.00 | 80 | 1015.7 |
| 20260906130106 | 50 | 136 | 0.0 | 1.0 | 0.00 | 0.19 | 0.00 | 83 | 1016.0 |
| 20260906124554 | 48 | 89 | 0.0 | 0.0 | 0.00 | 0.19 | 0.00 | 88 | 1016.2 |
| 20260906123054 | 47 | 89 | 0.0 | 0.0 | 0.00 | 0.19 | 0.00 | 88 | 1016.2 |
| 20260906121557 | 47 | 89 | 0.0 | 0.0 | 0.00 | 0.19 | 0.00 | 88 | 1016.2 |
| 20260906120052 | 47 | 89 | 0.0 | 0.0 | 0.00 | 0.19 | 0.00 | 88 | 1016.2 |
| 20260906114558 | 46 | 89 | 0.0 | 1.0 | 0.00 | 0.19 | 0.00 | 87 | 1016.4 |
| 20260906113056 | 47 | 92 | 0.0 | 0.0 | 0.00 | 0.19 | 0.00 | 88 | 1016.3 |
| 20260906111549 | 46 | 91 | 0.0 | 0.0 | 0.00 | 0.19 | 0.00 | 88 | 1016.3 |
| 20260906110047 | 47 | 92 | 0.0 | 1.0 | 0.00 | 0.19 | 0.00 | 88 | 1016.3 |
| 20260906104545 | 47 | 92 | 0.0 | 1.0 | 0.00 | 0.20 | 0.00 | 87 | 1016.3 |
| 20260906103043 | 47 | 72 | 0.0 | 2.0 | 0.00 | 0.20 | 0.00 | 86 | 1016.3 |
| 20260906101540 | 48 | 98 | 0.0 | 1.0 | 0.00 | 0.20 | 0.00 | 86 | 1016.4 |
| 20260906100038 | 48 | 97 | 0.0 | 1.0 | 0.00 | 0.20 | 0.00 | 85 | 1016.7 |
| 20260906094536 | 49 | 100 | 0.0 | 3.0 | 0.00 | 0.20 | 0.00 | 85 | 1016.7 |
| 20260906093037 | 49 | 94 | 0.0 | 1.0 | 0.00 | 0.20 | 0.00 | 85 | 1016.7 |
| 20260906091535 | 49 | 96 | 0.0 | 1.0 | 0.00 | 0.20 | 0.00 | 85 | 1016.7 |
| 20260906090031 | 50 | 89 | 0.0 | 1.0 | 0.00 | 0.20 | 0.00 | 84 | 1016.6 |
| 20260906084532 | 50 | 89 | 0.0 | 1.0 | 0.00 | 0.20 | 0.00 | 83 | 1016.8 |
| 20260906083028 | 51 | 89 | 0.0 | 2.0 | 0.00 | 0.20 | 0.00 | 81 | 1016.8 |
| 20260906081540 | 53 | 105 | 0.0 | 3.0 | 0.00 | 0.20 | 0.00 | 80 | 1016.8 |
| 20260906080031 | 53 | 111 | 0.0 | 2.0 | 0.00 | 0.20 | 0.00 | 80 | 1016.8 |
| 20260906074525 | 52 | 110 | 0.0 | 3.0 | 0.00 | 0.20 | 0.00 | 81 | 1016.7 |
| 20260906073023 | 51 | 113 | 0.0 | 2.0 | 0.00 | 0.20 | 0.00 | 85 | 1016.9 |
| 20260906071522 | 50 | 103 | 0.0 | 2.0 | 0.00 | 0.20 | 0.00 | 86 | 1016.8 |
| 20260906070018 | 51 | 109 | 0.0 | 0.0 | 0.00 | 0.20 | 0.00 | 83 | 1016.9 |
| 20260906064517 | 52 | 108 | 0.0 | 2.0 | 0.00 | 0.20 | 0.20 | 83 | 1016.8 |
| 20260906063017 | 50 | 78 | 0.0 | 0.0 | 0.00 | 0.20 | 0.20 | 88 | 1016.9 |
| 20260906061515 | 50 | 78 | 0.0 | 0.0 | 0.00 | 0.20 | 0.20 | 86 | 1017.0 |
| 20260906060024 | 51 | 78 | 0.0 | 1.0 | 0.00 | 0.20 | 0.20 | 85 | 1017.0 |
| 20260906054513 | 51 | 78 | 0.0 | 1.0 | 0.00 | 0.20 | 0.20 | 84 | 1017.1 |
| 20260906053020 | 52 | 78 | 0.0 | 1.0 | 0.00 | 0.20 | 0.20 | 83 | 1017.2 |
| 20260906051515 | 54 | 94 | 0.0 | 0.0 | 0.00 | 0.20 | 0.20 | 81 | 1017.2 |
| 20260906050029 | 54 | 94 | 0.0 | 1.0 | 0.00 | 0.20 | 0.20 | 79 | 1017.2 |
| 20260906044520 | 56 | 109 | 0.0 | 3.0 | 0.00 | 0.20 | 0.20 | 76 | 1017.2 |
| 20260906043013 | 56 | 91 | 0.0 | 2.0 | 0.00 | 0.20 | 0.20 | 74 | 1017.2 |
| 20260906041514 | 56 | 102 | 0.0 | 1.0 | 0.00 | 0.20 | 0.20 | 74 | 1017.2 |
| 20260906040013 | 56 | 148 | 0.0 | 0.0 | 0.00 | 0.20 | 0.20 | 73 | 1017.1 |
| 20260906034510 | 57 | 148 | 0.0 | 0.0 | 0.00 | 0.20 | 0.20 | 71 | 1016.9 |
| 20260906033024 | 58 | 149 | 0.0 | 0.0 | 0.00 | 0.20 | 0.20 | 71 | 1016.6 |
| 20260906031513 | 59 | 186 | 0.0 | 0.0 | 0.00 | 0.20 | 0.20 | 69 | 1016.5 |
| 20260906030012 | 60 | 186 | 0.0 | 0.0 | 0.00 | 0.20 | 0.20 | 66 | 1016.5 |
| 20260906024507 | 62 | 186 | 0.0 | 0.0 | 0.00 | 0.20 | 0.20 | 63 | 1016.4 |
| 20260906023007 | 63 | 186 | 0.0 | 1.0 | 0.00 | 0.20 | 0.20 | 59 | 1016.4 |
| 20260906021507 | 64 | 191 | 0.0 | 2.0 | 0.00 | 0.20 | 0.20 | 56 | 1016.2 |
| 20260906020006 | 66 | 174 | 0.0 | 4.0 | 0.00 | 0.20 | 0.20 | 53 | 1016.2 |
| 20260906014504 | 67 | 110 | 0.0 | 2.0 | 0.00 | 0.20 | 0.20 | 51 | 1016.3 |
| 20260906013008 | 68 | 114 | 0.0 | 3.0 | 0.00 | 0.20 | 0.20 | 50 | 1016.5 |
| 20260906011502 | 68 | 86 | 0.0 | 2.0 | 0.00 | 0.20 | 0.20 | 49 | 1016.4 |
| 20260906010001 | 68 | 101 | 1.0 | 4.0 | 0.00 | 0.20 | 0.20 | 49 | 1016.5 |
| 20260906004600 | 68 | 113 | 2.0 | 4.0 | 0.00 | 0.20 | 0.20 | 49 | 1016.5 |
| 20260906003058 | 68 | 107 | 1.0 | 5.0 | 0.00 | 0.20 | 0.20 | 49 | 1016.5 |
| 20260906001557 | 68 | 155 | 1.0 | 2.0 | 0.00 | 0.20 | 0.20 | 50 | 1016.4 |
| 20260906000056 | 68 | 108 | 2.0 | 6.0 | 0.00 | 0.20 | 0.20 | 50 | 1016.6 |
| 20260905234556 | 67 | 101 | 2.0 | 6.0 | 0.00 | 0.20 | 0.20 | 51 | 1016.8 |
| 20260905233052 | 67 | 70 | 3.0 | 7.0 | 0.00 | 0.20 | 0.20 | 52 | 1016.9 |
| 20260905231550 | 66 | 114 | 3.0 | 6.0 | 0.00 | 0.20 | 0.20 | 53 | 1017.0 |
| 20260905230053 | 66 | 115 | 1.0 | 8.0 | 0.00 | 0.20 | 0.20 | 54 | 1017.0 |
| 20260905224601 | 66 | 81 | 3.0 | 7.0 | 0.00 | 0.20 | 0.20 | 57 | 1017.2 |
| 20260905223044 | 64 | 117 | 4.0 | 8.0 | 0.00 | 0.20 | 0.20 | 58 | 1017.2 |
| 20260905221555 | 64 | 129 | 2.0 | 8.0 | 0.00 | 0.20 | 0.20 | 61 | 1017.4 |
| 20260905220041 | 63 | 102 | 3.0 | 7.0 | 0.00 | 0.20 | 0.20 | 64 | 1017.5 |
| 20260905214536 | 62 | 90 | 3.0 | 10.0 | 0.00 | 0.20 | 0.20 | 65 | 1017.7 |
| 20260905213034 | 61 | 103 | 2.0 | 8.0 | 0.00 | 0.20 | 0.20 | 68 | 1017.8 |
| 20260905211534 | 61 | 105 | 1.0 | 5.0 | 0.00 | 0.20 | 0.20 | 67 | 1018.1 |
| 20260905210033 | 61 | 113 | 2.0 | 8.0 | 0.00 | 0.20 | 0.20 | 65 | 1018.2 |
| 20260905204532 | 62 | 172 | 1.0 | 7.0 | 0.00 | 0.20 | 0.20 | 66 | 1018.2 |
| 20260905203033 | 61 | 260 | 1.0 | 8.0 | 0.00 | 0.20 | 0.20 | 70 | 1018.3 |
| 20260905201524 | 59 | 208 | 2.0 | 8.0 | 0.00 | 0.20 | 0.20 | 75 | 1018.4 |
| 20260905200025 | 58 | 103 | 0.0 | 6.0 | 0.00 | 0.20 | 0.20 | 79 | 1018.5 |